Location: Aranbee
(34.0885°N, 118.2342°W)
Time: 09:48:18
(UTC+00:00)

Courier 1B Rocket - Pass Details

Date: 30 November 2020
Orbit: 920 x 1202 km, 28.2° (Epoch: 27 January)

Event Time Altitude Azimuth Distance (km) Brightness Sun altitude
Rises 15:28:04 0° 265° (W) 4,094 7.8 7.8°
Reaches altitude 10° 15:31:01 10° 261° (W) 3,122 7.2 8.3°
Maximum altitude 15:38:33 54° 187° (S) 1,388 6.3 9.6°
Drops below altitude 10° 15:45:46 10° 112° (ESE) 2,987 9.6 10.8°
Sets 15:48:31 0° 107° (ESE) 3,906 9.7 11.3°
